This is the latest recevied weather packets stored in our database for station/object DM1HF-13. If no packets are shown the sender has not sent any weather packets the latest 10 day(s).
| Time | Temp. | Humidity | Pressure | Rain* | Wind** | Luminosity | Snow |
|---|---|---|---|---|---|---|---|
| 1777560017 | 18.33° C | 29% | 1031.8 hPa | 0 mm | - | 456 W/m² | - |
| 1777559717 | 18.33° C | 29% | 1031.8 hPa | 0 mm | - | 476 W/m² | - |
| 1777559417 | 18.33° C | 30% | 1031.9 hPa | 0 mm | - | 469 W/m² | - |
| 1777559117 | 18.33° C | 30% | 1032 hPa | 0 mm | - | 488 W/m² | - |
| 1777558817 | 17.78° C | 32% | 1032.1 hPa | 0 mm | - | 477 W/m² | - |
| 1777558516 | 17.78° C | 31% | 1032 hPa | 0 mm | - | 497 W/m² | - |
| 1777558217 | 18.33° C | 30% | 1032.2 hPa | 0 mm | - | 469 W/m² | - |
| 1777557917 | 18.33° C | 30% | 1032 hPa | 0 mm | - | 477 W/m² | - |
| 1777557617 | 18.33° C | 29% | 1032.1 hPa | 0 mm | - | 474 W/m² | - |
| 1777557317 | 17.78° C | 32% | 1032.1 hPa | 0 mm | - | 475 W/m² | - |
| 1777557016 | 18.33° C | 29% | 1032 hPa | 0 mm | - | 499 W/m² | - |
| 1777556717 | 18.33° C | 30% | 1032.3 hPa | 0 mm | - | 514 W/m² | - |
| 1777556417 | 18.89° C | 29% | 1032.3 hPa | 0 mm | - | 524 W/m² | - |
| 1777556117 | 18.33° C | 29% | 1032.3 hPa | 0 mm | - | 525 W/m² | - |
| 1777555817 | 18.33° C | 28% | 1032.5 hPa | 0 mm | - | 545 W/m² | - |
| 1777555517 | 17.78° C | 29% | 1032.5 hPa | 0 mm | - | 556 W/m² | - |
| 1777555217 | 17.78° C | 29% | 1032.6 hPa | 0 mm | - | 570 W/m² | - |
| 1777554916 | 17.78° C | 29% | 1032.7 hPa | 0 mm | - | 569 W/m² | - |
| 1777554617 | 17.22° C | 28% | 1032.7 hPa | 0 mm | - | 581 W/m² | - |
| 1777554317 | 17.78° C | 29% | 1032.8 hPa | 0 mm | - | 590 W/m² | - |
| 1777554017 | 17.22° C | 30% | 1032.8 hPa | 0 mm | - | 601 W/m² | - |
| 1777553717 | 17.78° C | 29% | 1033 hPa | 0 mm | - | 605 W/m² | - |
| 1777553416 | 17.22° C | 30% | 1032.9 hPa | 0 mm | - | 615 W/m² | - |
| 1777553117 | 16.67° C | 29% | 1032.8 hPa | 0 mm | - | 619 W/m² | - |
| 1777552817 | 17.22° C | 28% | 1032.8 hPa | 0 mm | - | 634 W/m² | - |
* Rain latest hour (hover to see other rain measurements)
** Current wind speed in m/s (hover to see current wind gust speed)